Location: Oulou
(10.7667°N, 12.5167°W)
Time: 19:18:49
(UTC+00:00)

Lacrosse 4 Rocket - Pass Details

Date: 20 September 2019
Orbit: 544 x 615 km, 68.0° (Epoch: 19 October)

Event Time Altitude Azimuth Distance (km) Brightness Sun altitude
Rises 19:40:55 0° 326° (NW) 2,695 5.4 -13.9°
Reaches altitude 10° 19:43:16 10° 315° (NW) 1,807 4.7 -14.5°
Maximum altitude 19:46:51 31° 252° (WSW) 965 3.2 -15.4°
Drops below altitude 10° 19:50:30 10° 189° (S) 1,829 4.0 -16.3°
Sets 19:52:54 0° 179° (S) 2,735 4.8 -16.8°
